Regional Weather Roundup
Issued by NWS

Home | Current Version | Previous Version | Graphics & Text | Print | Product List | Glossary On
Versions: 1 2 3 4 5 6 7 8 9 10 11 12 13 14 15 16 17 18 19 20 21 22 23 24 25 26 27 28 29 30 31 32 33 34 35 36 37 38 39 40 41 42 43 44 45 46 47 48 49 50
000
ASUS43 KMKX 310100
RWRWI

WISCONSIN REGIONAL WEATHER ROUNDUP
NATIONAL WEATHER SERVICE MILWAUKEE/SULLIVAN WI
800 PM CDT THU JUL 30 2015

NOTE: "FAIR" INDICATES FEW OR NO CLOUDS BELOW 12,000 FEET WITH NO
SIGNIFICANT WEATHER AND/OR OBSTRUCTIONS TO VISIBILITY.

WIZ001-002-006>008-014>016-023>028-310200-
NORTHWEST WISCONSIN

CITY           SKY/WX    TMP DP  RH WIND       PRES   REMARKS
SUPERIOR ARPT  CLEAR     78  55  46 W9G16     29.91S
ASHLAND        CLEAR     76  55  48 W8        29.90S
HAYWARD        PTCLDY    77  54  44 W9G16     29.96R
SIREN          CLEAR     78  54  43 W7        29.97S
CUMBERLAND     CLEAR     73  52  46 W10       29.99R
RICE LAKE      CLEAR     76  55  47 W7        30.00R
CHETEK         CLEAR     77  57  49 MISG      29.98S
LADYSMITH      CLEAR     77  55  47 W7        29.99R
EAU CLAIRE     CLEAR     77  57  50 W7        29.98S
MENOMONIE      CLEAR     80  55  41 W12       29.99S HX  80
NEW RICHMOND   CLEAR     78  54  43 W8        30.00S
OSCEOLA        CLEAR     78  58  50 W7        30.01F
$$

WIZ003>005-009-010-017-018-310200-
NORTH CENTRAL WISCONSIN

CITY           SKY/WX    TMP DP  RH WIND       PRES   REMARKS
MANITOWISH WTR PTCLDY    70  62  75 CALM      29.94S
ARBOR VITAE    PTCLDY    74  61  61 W10G16    29.94S
WOODRUFF       PTCLDY    74  61  61 W10G16    29.94S
RHINELANDER    CLEAR     71  59  65 SW7       29.96F
EAGLE RIVER    CLEAR     67  59  75 CALM      29.94S
LAND O LAKES   PTCLDY    70  58  66 SW3       29.95S
PHILLIPS       CLEAR     73  57  55 W5        29.96S
TOMAHAWK       CLEAR     67  64  90 CALM      29.97S
MEDFORD        CLEAR     74  57  55 W8        29.99R
MERRILL        NOT AVBL
$$

WIZ029-030-035-036-043>047-310200-
CENTRAL WISCONSIN

CITY           SKY/WX    TMP DP  RH WIND       PRES   REMARKS
WAUSAU         CLEAR     72  56  57 CALM      29.95F
MOSINEE        PTCLDY    75  55  50 W10       29.99R
MARSHFIELD     CLEAR     75  55  49 W8        29.99S
STEVENS POINT  CLEAR     77  55  46 W9        29.98S
WAUPACA        PTCLDY    82  52  35 W9G16     29.96S HX  81
WAUTOMA        NOT AVBL
WISC RAPIDS    PTCLDY    78  53  41 W7        29.99S
CAMP DOUGLAS   NOT AVBL
$$

WIZ011>013-019>022-031-037>040-048>050-310200-
NORTHEAST WISCONSIN

CITY           SKY/WX    TMP DP  RH WIND       PRES   REMARKS
ANTIGO         PTCLDY    67  60  78 CALM      29.97F
SHAWANO        CLOUDY    76  57  51 W5        29.94S
OCONTO         PTCLDY    73  59  61 N5        29.93R
STURGEON BAY   PTCLDY    70  59  68 N6        29.95R
GREEN BAY      MOCLDY    74  57  55 W5        29.94R
MANITOWOC      NOT AVBL
APPLETON       PTCLDY    75  52  43 VRB3      29.96R
CLINTONVILLE   MOCLDY    73  55  53 NW6       29.95S
OSHKOSH        CLEAR     78  54  43 W7        29.95S
$$

WIZ032>034-041-042-053>061-310200-
SOUTHWEST WISCONSIN

CITY           SKY/WX    TMP DP  RH WIND       PRES   REMARKS
LA CROSSE      CLEAR     80  58  46 W9        30.00S HX  80
SPARTA         CLEAR     80  54  40 W7        30.01S HX  80
VIROQUA        CLEAR     76  57  51 W6        30.04S
BOSCOBEL       CLEAR     80  57  45 W3        30.02S HX  80
PRAIRIE DU CHI CLEAR     81  53  36 W7        30.02S HX  81
PLATTEVILLE    CLEAR     79  59  50 W8        30.04S HX  80
$$

WIZ056-057-062-063-064-067-068-310200-
SOUTH CENTRAL WISCONSIN

CITY           SKY/WX    TMP DP  RH WIND       PRES   REMARKS
REEDSBURG      CLEAR     80  56  43 W7        30.00R HX  80
BARABOO/DELLS  CLEAR     80  48  32 W9        30.00S
LONE ROCK      NOT AVBL
MINERAL POINT  CLEAR     79  54  41 W7        30.04S
MADISON        PTCLDY    80  56  43 VRB3      29.99S HX  80
MIDDLETON      CLEAR     79  53  39 W8        30.01S
WATERTOWN      CLEAR     79  56  45 W7        29.98S HX  80
MONROE         CLEAR     79  57  47 W9        30.02S HX  80
JANESVILLE     CLEAR     81  55  41 W9        29.99S HX  80
$$

WIZ051-052-058>065-066-070>072-310200-
SOUTHEAST WISCONSIN

CITY           SKY/WX    TMP DP  RH WIND       PRES   REMARKS
MILWAUKEE      CLEAR     84  50  30 W10       29.97R HX  82
WAUKESHA       CLEAR     79  52  38 W10       29.99S
MILWAUKEE/TIMM CLEAR     84  48  28 W9        29.97S HX  82
RACINE         CLEAR     81  54  39 W3        29.99R HX  81
BURLINGTON     CLEAR     77  54  43 W5        29.99S
KENOSHA        CLEAR     75  58  55 W7        29.98S
FOND DU LAC    CLEAR     78  56  46 W3        29.96R
SHEBOYGAN      CLEAR     77  56  48 W6        29.94S
WEST BEND      CLEAR     79  48  34 CALM      29.97S
JUNEAU         CLEAR     78  55  44 W8        29.99R
$$

LSZ147-162-310200-
LAKE SUPERIOR

STATION/POSITION TIME  TEMP    WIND        PRES    WAVE
                       AIR SEA DIR/SP/G            HT/PER
                 (UTC) (F)     (DEG/KT/KT) (MB)    (FT/S)
W MID LAKE BUOY  2350   62 54  290/ 10/ 16 1010.7R   2/ 4
DEVILS ISLAND    0000   71     250/  3/  4 1011.2F
PORT WING        0000   75     250/ 14/ 19 1012.2S
SAXON HARBOR     0040   78                 1011.9S
$$

LMZ867-665-643>646-310200-
LAKE MICHIGAN

STATION/POSITION TIME  TEMP    WIND        PRES    WAVE
                       AIR SEA DIR/SP/G            HT/PER
                 (UTC) (F)     (DEG/KT/KT) (MB)    (FT/S)
CHAMBERS ISLAND  0000   73     300/  6/ 16 1012.9R
S GREEN BAY BUOY 0000   73 69  270/ 12/ 14 1014.2R
N MID LAKE BUOY  2350   71 69  220/  6/  8 1011.3F   2/ 3
NORTHPORT PIER   0000   78     290/  7/ 10 1011.9R
SISTER BAY       0014   77     320/ 21/ 24   N/A
ALGOMA LAKESHORE 0012          340/  8/ 12   N/A
KEWAUNEE LAKESHO 0000   81     280/  6/ 11 1012.4F
SHEBOYGAN LAKESH 0000   83     290/ 10/ 12 1013.5F
PORT WASHINGTON  0000   86     270/  7/ 14 1014.6S
ATWATER BUOY     0000   78 63  270/ 14/ 19 1015.7F
MILWAUKEE LAKESH 0000   84     290/ 15/ 23   N/A
KENOSHA   LAKESH 0000   85     270/ 11/ 16 1014.2F
$$

TC  - TEMPERATURE IN CELSIUS
VSB - VISIBILITY IN STATUTE MILES
WCI - WIND CHILL INDEX
HX  - HEAT INDEX




USA.gov is the U.S. government's official web portal to all federal, state and local government web resources and services.